Location: Newark
(41.8083°N, 72.2500°W)
Time: 10:52:01
(UTC+00:00)

Altair - Pass Details

Date: 02 December 2021
Orbit: 1501 x 1683 km, 47.2° (Epoch: 20 January)

Event Time Altitude Azimuth Distance (km) Brightness Sun altitude
Rises 02:39:33 0° 296° (WNW) 4,657 10.5 -58.2°
Reaches altitude 10° 02:42:35 10° 295° (WNW) 3,664 9.8 -58.7°
Enters shadow 02:43:58 16° 294° (WNW) 3,221 9.4 -58.9°
